Starlink 30839

operational
NORAD ID: 58209 Int'l Des: 2023-170 Owner: SPXS Country: US Constellation: starlink
LEOCIRCULAR

Über Starlink 30839

Beschreibung wird geladen...

Live-Position

3D-Globus wird geladen...

Nächste Überflüge

Höhenverlauf

Altitude vs Time

uPlot chart will show altitude changes over time

Zweizeiliger Elementsatz

1 58209U 23170D 25350.23048220 .00001852 00000-0 15209-3 0 9999
2 58209 43.0045 289.5347 0001313 267.6450 92.4242 15.02552313117726
Epoch: 16. Dez. 2025 • Age: 26 hours

Aktueller Status

Höhe 559.2 km
Geschwindigkeit 7.59 km/s
Subsatellitenpunkt 23.59°N, 117.05°E
Startdatum 4. Nov. 2023
Alter 2.1 years
Typ internet

Technische Details

Klassifizierung Payload
Masse 730.00 kg
Trockenmasse 700.00 kg
Gesamtmasse 730.00 kg
Länge 0.30 m
Durchmesser 4.10 m
Spannweite 29.00 m
Form Box + pan
Hersteller SPXS
Bus-Typ Starlink V2M
Phasenstatus In Orbit
Besitzer/Staat SPXS/US

Große Konstellationen

Loading constellations...